Find Starlink 31086

NORAD ID: 58626 Int'l Des: 2023-203 Owner: SPXS Country: US Constellation: starlink operational
LEOCIRCULAR

当前视图

正在加载3D地球...

About Starlink 31086

Starlink 31086 (NORAD 58626) is a starlink constellation satellite (v2 mini) launched Dec 23, 2023 by SPXS of US. It operates in LEO, CIRCULAR orbit with a mass of 730.00 kg.

关于 Starlink 31086

正在加载描述...

即将过境

Passes for default location (London). Set your location on the main map for personalized predictions.

高度历史

Loading altitude history...

两行轨道根数

1 58626U 23203J 26177.67472213 -.00000325 00000-0 -22770-5 0 9997
2 58626 42.9983 171.2237 0001558 273.5030 86.5643 15.27576367140237
Epoch: Jun 26, 2026 • Age: 8 hours

当前状态

高度 486.1 km
速度 7.63 km/s
星下点 38.16°N, 53.7°W
发射日期 Dec 23, 2023
运行时间 2.5 years
类型 internet

技术详情

分类 Payload
质量 730.00 kg
干质量 700.00 kg
总质量 730.00 kg
长度 0.30 m
直径 4.10 m
跨度 29.00 m
形状 Box + pan
制造商 SPXS
平台类型 Starlink V2M
阶段状态 In Orbit
所有者/国家 SPXS/US

Most Searched